Temp
43 43 43 42 43 42 43 42 42 42 41 41 40 39 38 37 33 33 32 35 35 40 44 41 45 49 49 48 49 49 49 51 53 51 50 49 48 51 52 52 51 51 51 51 50 50 51 51 51 52 53 54 54 54 53 53 53 53 53 55 56 55 54 54 57 61 63 66 67 63 63 63 63 62
44 44 43 42 42 43 41 41 42 42 41 40 40 39 39 39 36 34 32 33 36 40 43 44 43 47 48 49 48 49 49 52 53 50 49 49 49 52 52 51 50 50 51 50 49 49 49 50 51 52 53 53 53 52 52 52 52 52 53 55 54 52 53 53 55 60 62 63 62 62 62 62 61 61
44 42 42 42 41 42 41 41 41 41 41 40 39 39 40 40 38 36 35 33 36 41 39 43 46 46 47 48 48 48 49 51 52 50 49 49 52 53 51 51 51 50 50 49 51 51 50 48 49 50 51 52 52 52 52 52 52 52 53 52 52 52 52 52 53 58 63 63 63 63 62 62 62 62
43 42 41 41 40 40 40 40 40 39 41 41 39 40 39 38 38 38 36 34 35 41 41 42 44 46 46 47 46 47 49 51 52 49 49 50 52 50 49 51 51 51 50 50 49 50 48 48 49 50 51 51 51 52 51 51 51 51 50 50 50 50 51 52 53 55 62 63 64 64 62 62 62 62
42 42 41 40 39 39 39 39 39 39 39 40 39 40 39 38 38 37 36 34 35 39 42 42 42 45 45 45 47 46 47 48 49 51 49 49 48 48 48 49 50 50 50 49 49 48 48 48 50 51 51 50 51 50 49 49 49 49 49 48 48 48 50 52 51 52 56 62 63 63 62 61 61 61
43 40 39 39 39 38 38 37 38 38 38 39 38 38 39 37 38 38 37 35 35 35 40 41 44 44 45 43 47 45 45 46 48 47 48 49 49 49 49 49 48 50 50 49 48 49 48 48 48 48 47 47 47 48 47 47 46 48 48 46 44 47 49 51 51 51 52 56 61 61 61 60 61 61
39 39 39 38 38 40 38 37 37 38 38 38 38 38 38 38 38 39 38 35 34 35 37 41 41 42 43 42 44 46 46 47 47 46 47 48 48 49 49 49 48 49 49 49 49 48 48 48 48 47 47 47 47 47 47 47 47 46 47 46 46 47 48 48 49 49 51 53 57 61 60 60 61 62
39 38 38 37 37 38 37 37 37 37 37 37 38 37 38 38 38 39 39 38 35 36 35 39 40 42 41 43 45 46 46 46 46 47 47 48 48 48 49 48 48 49 49 49 49 49 49 48 47 47 47 47 47 47 47 47 47 46 47 47 47 47 47 47 47 47 49 51 52 57 59 59 61 64
39 40 38 38 38 37 37 36 37 37 36 37 37 37 38 38 38 39 38 38 37 36 35 37 40 41 41 43 44 45 44 45 45 46 45 46 47 48 49 49 49 50 49 49 49 48 48 47 47 47 47 47 47 47 47 47 47 47 47 47 47 47 47 47 47 47 48 47 47 51 59 59 61 63
39 39 38 38 38 37 37 36 36 36 36 37 37 37 38 38 38 37 38 38 38 37 36 37 37 40 40 41 42 44 45 43 42 44 45 46 47 47 46 47 48 48 48 47 47 48 47 47 48 48 47 47 46 46 47 47 47 47 47 47 47 47 47 47 47 47 47 47 47 48 53 58 59 62
39 38 38 38 38 39 38 37 37 37 37 39 37 38 37 38 37 37 37 37 37 36 36 37 38 38 41 40 40 44 45 44 43 42 42 42 45 46 45 45 47 47 47 48 48 47 47 48 48 47 47 47 47 47 47 47 47 48 47 47 47 47 46 46 47 47 47 47 46 46 46 50 57 61
39 38 39 38 38 37 38 39 38 37 38 38 38 38 38 37 37 36 36 36 36 36 36 36 37 38 38 40 42 43 43 41 42 43 42 39 41 43 45 45 44 46 46 45 46 48 48 47 47 47 47 47 47 47 47 48 48 48 48 47 46 46 46 47 47 47 47 47 47 46 46 46 49 57
39 40 39 38 37 42 50 49 47 45 45 40 38 38 37 38 37 36 36 36 35 36 35 36 38 37 38 39 39 39 39 39 39 42 43 41 43 44 44 45 46 46 45 46 45 44 45 44 44 45 44 45 47 47 48 48 48 48 47 46 46 46 46 47 47 47 47 47 47 46 46 46 47 49
40 41 39 42 52 51 49 48 45 44 44 45 42 39 38 37 36 35 35 35 36 35 35 36 36 35 36 37 39 38 40 42 42 41 41 40 42 43 42 44 46 47 46 44 42 43 45 44 43 43 42 44 46 45 45 44 46 46 46 46 46 46 46 46 46 47 47 47 47 47 46 46 46 46
41 41 38 35 43 47 45 43 44 43 43 42 42 43 44 44 39 36 35 36 36 36 36 36 36 36 35 38 39 39 40 41 41 40 41 41 41 40 38 36 42 47 45 43 41 41 45 44 41 42 42 43 44 44 44 46 46 46 45 46 46 46 46 46 46 46 46 46 46 46 46 46 46 46
40 38 36 38 39 40 41 42 40 41 42 42 42 42 42 42 42 42 38 37 37 36 35 36 36 36 36 37 39 39 40 40 40 40 41 41 41 40 38 38 36 43 46 41 39 39 44 44 42 41 42 43 44 44 45 45 45 45 45 45 45 45 46 45 45 46 46 46 46 45 45 45 45 45
38 39 39 39 41 39 47 44 38 37 38 41 42 42 43 42 43 40 40 41 41 39 36 36 36 37 37 37 39 41 41 41 38 40 40 41 41 41 39 39 39 42 45 41 39 38 42 42 41 40 42 43 43 44 45 45 45 45 45 45 45 45 45 45 45 45 45 45 45 45 45 45 45 45
37 37 36 37 40 40 38 38 38 38 36 36 37 37 38 38 40 41 42 41 42 42 40 37 36 39 39 38 39 42 42 39 39 39 39 41 40 40 39 41 41 43 45 41 39 36 39 42 40 39 42 43 43 43 44 44 45 45 45 45 45 45 45 45 45 45 45 44 45 45 45 45 44 44
37 36 36 36 37 38 38 40 40 38 36 35 36 37 37 37 37 38 38 40 40 41 40 38 38 39 40 40 41 41 42 41 41 42 41 41 41 41 43 42 43 43 45 43 39 33 38 42 39 39 41 42 42 43 43 44 44 44 44 44 44 44 45 45 44 44 44 45 45 44 44 44 44 43
36 36 36 35 37 38 37 42 41 39 38 34 35 36 37 37 38 38 43 43 43 42 41 40 40 41 41 42 42 42 42 42 43 44 43 42 41 39 37 37 40 39 43 43 39 36 37 41 38 38 41 41 40 42 42 44 44 44 44 44 44 44 44 44 44 44 44 44 44 45 44 44 43 43
36 37 40 39 37 37 37 41 39 38 40 35 35 35 35 36 37 38 41 43 42 42 42 41 41 41 41 41 42 42 42 43 43 42 39 37 38 36 34 35 37 37 40 42 41 38 35 38 38 37 39 40 40 40 42 43 44 44 44 44 44 44 44 44 44 44 44 44 44 44 44 44 44 44
34 36 48 46 38 36 38 40 38 38 39 35 34 34 34 35 36 38 39 39 41 42 42 42 41 41 41 42 42 43 43 42 44 41 36 37 37 35 35 33 35 37 39 41 43 36 35 37 38 36 38 39 40 41 42 42 43 44 44 44 44 44 44 44 44 44 44 44 44 45 44 44 44 45
35 35 40 44 42 39 40 38 38 38 38 34 34 33 32 35 35 37 36 36 37 38 38 39 40 40 42 42 42 43 43 43 45 43 40 39 37 35 35 35 34 33 36 40 42 34 34 34 36 36 34 33 38 42 42 42 42 40 41 42 44 44 44 44 44 44 44 44 44 45 44 44 44 46
35 34 36 39 40 39 38 38 38 38 38 35 34 33 33 34 36 38 36 39 39 37 37 37 38 38 39 40 41 41 42 43 44 43 41 39 38 37 36 36 35 32 34 39 41 34 34 35 34 37 35 31 30 37 40 41 43 43 42 41 41 43 45 45 44 44 44 44 44 44 44 44 44 46
33 35 35 35 40 39 38 38 38 38 39 39 37 34 34 34 38 38 36 38 40 36 37 37 38 38 38 39 39 40 40 42 42 42 41 40 39 38 37 35 34 34 36 39 39 36 32 34 33 35 35 34 34 34 37 39 41 41 41 40 40 41 41 42 42 43 44 44 44 44 44 44 44 46
32 33 33 36 39 39 38 38 38 38 38 39 38 37 38 38 38 38 38 36 36 35 36 35 36 36 36 37 37 39 40 41 41 41 41 40 40 40 40 38 35 33 33 37 39 37 34 33 34 33 33 32 33 35 34 36 38 39 40 41 41 41 42 42 43 44 46 46 45 43 43 44 44 45
34 33 34 35 40 38 37 37 38 38 38 40 36 38 38 38 38 39 36 36 35 34 34 35 34 35 35 35 36 37 38 39 40 40 41 42 41 40 41 41 40 38 38 39 40 39 36 33 35 33 31 32 32 34 34 33 36 40 40 41 43 44 44 44 45 47 48 48 47 44 44 43 43 44
32 34 33 37 38 37 37 37 37 38 39 37 37 38 38 39 38 36 35 34 34 33 33 33 33 33 35 35 35 36 37 38 39 40 41 41 41 40 40 41 41 41 40 39 39 38 37 34 34 34 33 32 32 33 33 39 40 40 39 42 42 42 43 45 46 47 48 48 46 45 44 43 43 44
35 38 38 37 37 37 37 37 37 38 39 38 37 38 38 41 33 34 32 33 33 32 32 32 33 33 35 34 35 37 37 38 40 40 41 41 40 40 41 41 41 41 41 40 39 37 36 35 33 34 34 34 32 33 34 34 36 36 38 37 39 43 45 47 47 47 47 47 46 45 44 44 43 44
38 37 37 37 37 37 37 35 34 34 36 38 38 38 39 33 32 33 32 32 32 31 32 32 32 33 34 34 35 37 37 37 38 38 38 38 38 39 38 38 38 40 40 40 39 37 35 35 34 33 33 34 33 32 33 33 34 35 37 37 39 43 43 46 46 46 46 45 45 45 46 46 45 45
34 36 36 36 36 37 37 36 37 37 37 35 36 33 32 32 32 33 32 31 32 31 31 32 32 32 34 35 35 35 35 36 37 38 38 37 36 37 37 37 37 37 38 40 39 38 36 35 35 34 32 33 33 33 33 33 33 34 35 37 38 36 38 44 45 45 45 45 45 45 45 45 45 45
35 34 37 36 33 33 33 32 32 32 33 32 32 34 32 32 32 36 38 38 31 31 30 30 31 33 33 33 33 34 34 35 36 38 37 36 36 36 36 36 35 36 36 37 38 38 37 36 35 36 34 32 31 32 33 33 33 33 34 36 37 37 38 38 41 44 45 45 43 42 42 43 44 46
32 32 33 33 33 30 31 30 31 31 31 32 32 32 33 33 33 32 32 32 31 30 30 31 31 31 31 32 33 33 33 34 35 36 36 37 35 36 36 35 35 35 34 35 36 37 37 36 37 36 36 34 34 33 32 30 31 34 33 34 36 36 36 37 38 39 43 42 40 40 38 39 39 41
30 29 29 28 29 30 29 28 27 28 30 29 30 32 35 32 32 32 32 30 30 31 30 29 30 30 30 31 31 32 32 33 34 36 36 35 35 34 34 34 35 35 35 35 35 35 36 37 36 36 37 36 35 35 34 31 30 32 34 34 35 35 36 37 37 37 38 38 38 36 36 36 37 38
28 28 30 30 28 26 28 26 27 28 26 26 26 29 29 30 33 32 31 33 29 28 28 29 29 29 30 30 30 30 31 31 32 34 35 35 35 34 34 33 34 35 35 34 35 36 36 35 35 35 35 36 35 36 39 35 31 31 33 34 34 35 35 36 36 36 37 36 37 35 34 34 34 36
28 26 26 28 29 27 27 28 25 27 27 29 27 27 27 31 29 28 31 31 29 28 28 28 28 29 29 29 30 30 30 31 31 32 32 33 32 33 34 34 34 34 35 35 35 36 35 35 34 33 32 32 32 31 32 39 37 32 31 32 33 34 35 36 36 36 35 35 35 34 32 32 32 34
30 29 29 30 31 29 27 29 29 30 30 30 31 29 28 29 31 32 31 28 28 27 29 29 27 28 29 29 29 30 30 30 30 31 31 32 32 32 32 33 34 34 34 35 36 36 35 34 34 33 32 31 29 28 31 35 36 37 33 31 32 33 34 35 35 35 35 35 34 34 33 33 33 34
30 30 29 31 30 30 30 29 29 28 31 30 30 30 31 31 31 31 29 29 29 27 28 27 27 28 29 28 28 28 29 30 30 30 31 31 30 31 31 31 32 33 33 36 36 36 36 34 33 33 32 30 28 28 28 33 34 34 37 34 31 32 33 34 34 33 34 35 34 34 35 33 33 34
30 32 32 33 32 32 32 31 29 31 32 32 31 31 33 32 31 31 31 29 29 28 28 29 28 28 29 29 27 27 27 28 29 29 30 30 30 30 31 31 31 32 33 34 36 35 35 33 33 33 32 31 29 29 30 30 31 33 36 37 34 32 32 32 32 33 33 34 35 36 36 36 37 38
32 31 32 31 33 31 31 32 30 31 32 34 33 32 33 32 32 33 31 30 28 28 28 27 28 29 28 29 27 27 28 29 29 28 29 29 30 30 31 31 30 30 31 34 34 34 33 33 32 32 32 33 34 35 34 33 34 37 35 35 37 34 32 32 31 31 31 32 34 35 34 35 33 35
30 30 32 31 32 32 31 31 32 31 32 33 34 34 31 31 33 32 31 30 27 27 28 27 28 27 28 27 27 25 26 28 28 29 29 29 30 30 31 31 30 30 30 32 33 33 33 32 33 34 35 35 36 37 34 33 32 33 34 34 36 37 37 36 33 31 30 32 33 34 34 32 31 32
31 32 33 31 33 34 32 32 32 31 33 33 34 33 34 32 30 34 31 29 28 25 25 26 27 27 27 26 25 25 25 26 27 28 28 27 28 29 30 30 29 29 29 29 30 31 33 34 34 34 35 35 36 34 31 31 31 32 33 34 35 36 36 36 36 35 33 32 31 30 31 33 34 30
33 33 34 35 33 32 33 32 33 33 34 33 33 34 31 33 31 30 27 28 28 26 26 27 26 24 25 25 25 24 24 27 26 26 27 27 27 27 28 28 28 29 28 28 30 32 33 33 33 33 34 33 32 33 31 32 32 33 33 34 34 35 36 36 36 35 35 35 34 33 31 31 30 27
34 33 34 35 34 34 34 33 33 32 33 34 34 33 30 30 32 32 31 28 27 28 28 26 26 26 26 26 25 24 24 25 26 26 27 27 27 27 27 28 29 29 29 28 29 32 32 33 33 32 32 31 31 31 31 31 31 32 32 34 35 35 34 36 36 36 36 34 34 34 34 34 33 33
35 34 35 35 34 33 33 34 33 33 33 34 32 33 34 32 30 31 30 29 27 27 27 27 27 27 26 26 24 28 28 30 28 25 25 26 26 27 27 28 28 28 29 28 26 30 30 31 32 32 32 31 30 30 31 31 31 31 32 32 32 34 34 35 34 34 34 33 35 35 34 34 34 34
MSLP
1026.77 1026.77 1026.73 1026.81 1026.89 1026.97 1026.97 1026.97 1026.97 1026.97 1026.89 1026.85 1026.81 1026.81 1026.85 1026.89 1027.09 1027.09 1026.25 1025.25 1025.05 1023.93 1024.09 1023.97 1022.97 1022.89 1022.73 1022.49 1022.17 1021.89 1021.53 1021.13 1020.73 1020.53 1020.37 1020.17 1019.89 1019.53 1019.25 1019.09 1018.97 1018.81 1018.57 1018.33 1017.97 1017.53 1017.13 1016.89 1016.57 1016.21 1015.85 1015.57 1015.25 1014.93 1014.73 1014.53 1014.37 1014.17 1013.93 1013.65 1013.41 1013.21 1012.93 1012.45 1012.13 1012.05 1012.05 1012.33 1012.53 1012.85 1013.17 1013.53 1013.93 1014.33
1026.85 1026.89 1026.93 1027.01 1027.13 1027.21 1027.25 1027.33 1027.25 1027.17 1027.13 1027.05 1027.01 1026.97 1026.97 1026.97 1027.05 1027.25 1027.25 1026.45 1025.33 1024.61 1023.97 1024.09 1023.53 1022.69 1022.53 1022.37 1022.09 1021.85 1021.45 1021.09 1020.73 1020.45 1020.21 1019.97 1019.69 1019.25 1019.01 1018.81 1018.69 1018.53 1018.33 1018.09 1017.81 1017.45 1017.01 1016.69 1016.41 1016.05 1015.69 1015.37 1015.13 1014.85 1014.57 1014.41 1014.21 1014.05 1013.77 1013.53 1013.37 1013.17 1012.85 1012.45 1012.05 1011.81 1011.97 1012.17 1012.49 1012.69 1012.85 1013.21 1013.57 1013.93
1026.97 1027.05 1027.17 1027.29 1027.37 1027.45 1027.49 1027.49 1027.41 1027.33 1027.25 1027.21 1027.17 1027.09 1027.09 1027.09 1027.21 1027.25 1027.25 1027.21 1025.33 1025.13 1024.85 1023.97 1023.65 1023.29 1022.73 1022.33 1022.05 1021.69 1021.37 1020.97 1020.61 1020.37 1020.09 1019.81 1019.41 1019.05 1018.77 1018.49 1018.25 1018.13 1017.97 1017.77 1017.49 1017.21 1016.89 1016.53 1016.17 1015.85 1015.53 1015.17 1014.85 1014.69 1014.41 1014.17 1014.09 1013.85 1013.61 1013.41 1013.29 1013.05 1012.77 1012.45 1012.09 1011.77 1011.53 1011.65 1011.97 1012.37 1012.65 1012.85 1013.21 1013.49
1027.17 1027.25 1027.41 1027.57 1027.65 1027.69 1027.65 1027.61 1027.57 1027.49 1027.41 1027.41 1027.33 1027.29 1027.21 1027.21 1027.21 1027.17 1027.25 1027.25 1026.45 1025.29 1025.21 1024.53 1023.81 1023.33 1022.93 1022.41 1022.05 1021.61 1021.17 1020.81 1020.53 1020.21 1019.89 1019.57 1019.21 1018.93 1018.57 1018.13 1017.89 1017.69 1017.53 1017.37 1017.17 1016.89 1016.61 1016.33 1016.01 1015.57 1015.21 1014.97 1014.69 1014.37 1014.25 1014.01 1013.81 1013.69 1013.49 1013.29 1013.01 1012.85 1012.69 1012.41 1012.13 1011.81 1011.37 1011.21 1011.53 1011.89 1012.29 1012.53 1012.81 1013.09
1027.41 1027.53 1027.69 1027.81 1027.89 1027.85 1027.69 1027.77 1027.73 1027.65 1027.57 1027.49 1027.45 1027.37 1027.29 1027.21 1027.17 1027.21 1027.21 1027.09 1026.49 1025.41 1024.85 1024.61 1024.05 1023.45 1023.13 1022.61 1022.09 1021.77 1021.29 1020.73 1020.25 1019.97 1019.69 1019.41 1019.09 1018.73 1018.37 1017.89 1017.49 1017.25 1017.05 1016.89 1016.73 1016.49 1016.21 1015.97 1015.73 1015.33 1014.93 1014.65 1014.45 1014.21 1013.97 1013.81 1013.53 1013.41 1013.29 1013.09 1012.85 1012.65 1012.49 1012.29 1012.09 1011.77 1011.29 1010.89 1010.97 1011.29 1011.69 1012.09 1012.41 1012.69
1027.73 1027.81 1027.89 1028.01 1027.97 1027.93 1027.81 1027.85 1027.81 1027.81 1027.69 1027.65 1027.53 1027.41 1027.37 1027.33 1027.13 1027.09 1027.17 1026.85 1026.61 1025.77 1024.81 1024.37 1023.93 1023.53 1023.13 1022.89 1022.17 1021.93 1021.41 1020.85 1020.29 1019.85 1019.45 1019.09 1018.85 1018.49 1018.05 1017.65 1017.13 1016.81 1016.57 1016.37 1016.21 1016.05 1015.81 1015.53 1015.33 1015.05 1014.73 1014.33 1014.09 1013.93 1013.69 1013.49 1013.33 1013.01 1012.93 1012.85 1012.69 1012.49 1012.25 1012.09 1011.89 1011.61 1011.25 1010.97 1010.65 1010.85 1011.13 1011.57 1011.89 1012.25
1027.89 1027.93 1028.05 1028.09 1028.09 1028.05 1027.93 1027.93 1027.89 1027.89 1027.81 1027.73 1027.65 1027.45 1027.41 1027.25 1027.05 1026.89 1026.85 1026.89 1026.57 1026.01 1025.21 1024.57 1024.05 1023.53 1023.09 1022.93 1022.17 1021.77 1021.45 1020.97 1020.53 1019.97 1019.37 1018.89 1018.49 1018.17 1017.85 1017.41 1016.85 1016.45 1016.21 1015.93 1015.69 1015.53 1015.37 1015.13 1014.85 1014.61 1014.37 1014.01 1013.73 1013.49 1013.29 1013.13 1012.97 1012.77 1012.49 1012.41 1012.29 1012.13 1011.97 1011.85 1011.65 1011.41 1011.17 1010.93 1010.61 1010.37 1010.61 1010.97 1011.33 1011.69
1027.93 1027.93 1028.01 1028.21 1028.25 1028.17 1028.01 1028.01 1027.93 1027.93 1027.89 1027.81 1027.69 1027.49 1027.33 1027.25 1027.01 1026.81 1026.65 1026.57 1026.61 1026.01 1025.65 1024.53 1024.25 1023.53 1023.25 1022.61 1022.13 1021.69 1021.29 1020.89 1020.37 1019.97 1019.29 1018.77 1018.29 1017.85 1017.49 1017.17 1016.61 1016.05 1015.77 1015.49 1015.25 1015.05 1014.89 1014.69 1014.41 1014.17 1013.93 1013.65 1013.33 1013.05 1012.85 1012.65 1012.53 1012.37 1012.17 1011.93 1011.81 1011.73 1011.61 1011.49 1011.33 1011.13 1010.93 1010.77 1010.57 1010.29 1010.09 1010.37 1010.73 1011.05
1027.93 1028.01 1028.13 1028.37 1028.33 1028.21 1028.05 1028.05 1028.01 1028.01 1027.85 1027.81 1027.69 1027.53 1027.37 1027.21 1027.05 1026.81 1026.61 1026.37 1026.25 1026.09 1025.69 1024.81 1024.09 1023.61 1023.21 1022.69 1022.09 1021.57 1021.17 1020.57 1020.21 1019.69 1019.21 1018.65 1018.01 1017.41 1017.13 1016.77 1016.29 1015.85 1015.37 1015.09 1014.85 1014.61 1014.37 1014.17 1013.97 1013.69 1013.41 1013.17 1012.85 1012.57 1012.37 1012.17 1012.01 1011.89 1011.77 1011.53 1011.33 1011.25 1011.21 1011.09 1010.93 1010.81 1010.73 1010.65 1010.49 1010.17 1009.81 1009.77 1010.13 1010.41
1027.97 1028.09 1028.29 1028.37 1028.29 1028.17 1028.13 1028.13 1028.09 1028.05 1027.89 1027.81 1027.69 1027.53 1027.33 1027.21 1027.05 1026.85 1026.49 1026.25 1026.01 1025.85 1025.49 1025.01 1024.13 1023.45 1023.09 1022.45 1022.05 1021.45 1021.09 1020.69 1019.97 1019.33 1018.77 1018.33 1017.85 1017.29 1016.53 1016.17 1015.93 1015.41 1015.01 1014.65 1014.33 1014.13 1013.89 1013.69 1013.41 1013.13 1012.85 1012.57 1012.33 1012.09 1011.81 1011.65 1011.49 1011.33 1011.21 1011.09 1010.93 1010.77 1010.73 1010.65 1010.53 1010.37 1010.29 1010.25 1010.09 1009.89 1009.65 1009.29 1009.53 1009.81
1028.09 1028.25 1028.33 1028.33 1028.21 1028.13 1028.13 1028.13 1028.09 1028.01 1027.89 1027.81 1027.65 1027.53 1027.41 1027.25 1027.09 1026.81 1026.49 1026.25 1026.01 1025.65 1025.33 1024.77 1024.29 1023.65 1023.01 1022.73 1022.05 1021.21 1020.97 1020.61 1020.29 1019.49 1018.41 1017.65 1017.45 1017.21 1016.69 1015.57 1014.93 1014.93 1014.45 1014.25 1014.13 1013.81 1013.45 1013.09 1012.77 1012.49 1012.21 1011.97 1011.73 1011.49 1011.25 1011.05 1010.97 1010.81 1010.61 1010.57 1010.49 1010.33 1010.21 1010.13 1010.09 1009.97 1009.85 1009.77 1009.69 1009.57 1009.45 1009.33 1009.13 1009.17
1028.21 1028.33 1028.29 1028.21 1028.13 1028.09 1028.05 1028.05 1028.01 1028.05 1027.97 1027.81 1027.57 1027.41 1027.37 1027.17 1027.01 1026.77 1026.49 1026.25 1025.89 1025.53 1025.17 1024.81 1024.17 1023.65 1023.17 1022.41 1021.97 1021.33 1020.81 1020.33 1019.77 1019.57 1019.09 1018.17 1016.89 1016.17 1015.97 1015.97 1015.13 1014.09 1013.93 1013.73 1013.49 1013.29 1012.97 1012.53 1012.17 1011.81 1011.53 1011.29 1011.05 1010.89 1010.69 1010.45 1010.33 1010.21 1010.05 1009.97 1009.93 1009.89 1009.73 1009.61 1009.53 1009.45 1009.37 1009.33 1009.29 1009.25 1009.21 1009.13 1009.09 1008.85
1028.25 1028.25 1028.21 1028.17 1028.09 1028.01 1027.85 1027.93 1027.89 1027.89 1027.89 1027.85 1027.73 1027.33 1027.29 1027.09 1026.89 1026.69 1026.41 1026.13 1025.77 1025.41 1025.13 1024.57 1024.09 1023.73 1023.09 1022.53 1021.97 1021.37 1020.93 1020.61 1020.05 1019.13 1018.81 1018.17 1017.45 1016.49 1015.53 1014.93 1014.89 1014.49 1013.85 1013.25 1013.17 1012.85 1012.49 1011.93 1011.45 1011.13 1010.85 1010.65 1010.45 1010.25 1010.09 1009.85 1009.69 1009.61 1009.49 1009.41 1009.37 1009.37 1009.29 1009.17 1009.05 1008.97 1008.93 1008.85 1008.85 1008.89 1008.85 1008.81 1008.77 1008.93
1028.21 1028.17 1028.17 1028.13 1027.93 1027.89 1027.97 1027.93 1027.85 1027.73 1027.61 1027.53 1027.53 1027.37 1027.17 1026.97 1026.77 1026.53 1026.29 1025.93 1025.65 1025.41 1024.97 1024.57 1024.21 1023.73 1023.25 1022.61 1022.09 1021.73 1021.13 1020.53 1019.85 1019.29 1018.69 1018.01 1016.93 1016.13 1015.29 1014.65 1014.73 1014.05 1013.69 1013.21 1012.57 1012.29 1011.97 1011.49 1010.69 1010.57 1010.37 1010.01 1009.97 1009.73 1009.57 1009.41 1009.21 1009.01 1008.97 1008.89 1008.81 1008.81 1008.81 1008.81 1008.69 1008.53 1008.49 1008.49 1008.45 1008.49 1008.53 1008.49 1008.49 1008.57
1028.13 1028.13 1028.21 1028.25 1028.13 1028.05 1028.01 1027.93 1027.81 1027.69 1027.61 1027.45 1027.21 1026.97 1026.73 1026.57 1026.49 1026.37 1026.13 1025.77 1025.45 1025.25 1025.01 1024.57 1024.17 1023.89 1023.41 1022.65 1022.13 1021.73 1021.05 1020.45 1020.01 1019.41 1018.73 1017.97 1016.97 1016.41 1015.81 1014.45 1013.17 1013.85 1013.69 1013.01 1012.57 1011.77 1011.33 1010.93 1010.37 1010.01 1009.89 1009.61 1009.41 1009.21 1009.01 1008.81 1008.61 1008.45 1008.37 1008.33 1008.25 1008.21 1008.25 1008.29 1008.29 1008.17 1008.05 1008.05 1008.05 1008.09 1008.13 1008.17 1008.17 1008.21
1028.17 1028.17 1028.25 1028.21 1028.13 1028.13 1028.01 1027.89 1027.85 1027.73 1027.53 1027.41 1027.17 1026.93 1026.65 1026.37 1026.09 1025.93 1025.93 1025.73 1025.33 1025.05 1024.93 1024.57 1024.13 1023.85 1023.41 1022.81 1022.17 1021.49 1020.97 1020.45 1020.01 1019.45 1018.77 1018.05 1017.33 1016.57 1015.89 1015.33 1014.69 1013.41 1013.37 1012.97 1012.45 1011.61 1010.69 1010.25 1010.21 1009.77 1009.41 1009.21 1009.01 1008.69 1008.41 1008.21 1008.01 1007.85 1007.77 1007.69 1007.65 1007.61 1007.65 1007.73 1007.81 1007.77 1007.69 1007.61 1007.61 1007.65 1007.77 1007.77 1007.85 1007.93
1028.17 1028.25 1028.29 1028.21 1028.13 1028.17 1028.09 1027.97 1027.89 1027.89 1027.65 1027.29 1027.09 1026.89 1026.61 1026.25 1025.97 1025.77 1025.49 1025.33 1025.21 1025.05 1024.85 1024.61 1024.17 1023.73 1023.33 1022.89 1022.13 1021.49 1021.09 1020.65 1020.13 1019.21 1018.53 1017.85 1017.37 1016.89 1016.25 1015.45 1014.41 1013.45 1013.21 1012.77 1012.21 1011.49 1010.13 1009.97 1009.85 1009.61 1008.93 1008.81 1008.49 1008.13 1007.85 1007.57 1007.41 1007.25 1007.09 1007.05 1007.01 1007.01 1007.01 1007.09 1007.21 1007.29 1007.25 1007.21 1007.13 1007.17 1007.25 1007.41 1007.49 1007.57
1028.25 1028.29 1028.33 1028.33 1028.17 1028.09 1028.13 1028.05 1027.89 1027.85 1027.73 1027.49 1027.21 1026.85 1026.57 1026.37 1026.05 1025.69 1025.41 1025.13 1024.89 1024.73 1024.61 1024.49 1024.21 1023.45 1023.25 1022.97 1022.17 1021.41 1021.01 1020.65 1020.01 1019.25 1018.49 1017.77 1017.21 1016.69 1016.25 1015.33 1014.49 1013.57 1013.13 1012.77 1012.01 1011.37 1010.09 1009.77 1009.65 1009.29 1008.53 1008.33 1007.93 1007.57 1007.25 1007.01 1006.77 1006.57 1006.41 1006.33 1006.33 1006.33 1006.33 1006.41 1006.53 1006.65 1006.77 1006.77 1006.73 1006.69 1006.77 1006.89 1007.09 1007.25
1028.29 1028.33 1028.41 1028.45 1028.37 1028.25 1028.17 1028.01 1027.89 1027.89 1027.69 1027.53 1027.21 1026.81 1026.49 1026.29 1026.05 1025.77 1025.37 1025.05 1024.81 1024.61 1024.41 1024.25 1023.93 1023.41 1022.93 1022.57 1022.01 1021.41 1020.89 1020.53 1019.97 1019.37 1018.57 1017.81 1017.25 1016.53 1015.65 1014.93 1014.29 1013.45 1013.01 1012.49 1012.21 1011.53 1009.97 1009.65 1009.53 1009.01 1008.49 1007.85 1007.33 1006.93 1006.61 1006.33 1006.05 1005.85 1005.73 1005.61 1005.61 1005.61 1005.65 1005.73 1005.81 1005.97 1006.13 1006.25 1006.25 1006.29 1006.37 1006.53 1006.65 1006.85
1028.53 1028.53 1028.49 1028.45 1028.29 1028.25 1028.21 1027.85 1027.77 1027.81 1027.69 1027.45 1027.09 1026.77 1026.53 1026.21 1025.89 1025.57 1025.29 1024.97 1024.69 1024.45 1024.25 1024.01 1023.65 1023.21 1022.73 1022.25 1021.77 1021.17 1020.65 1020.13 1019.61 1018.97 1018.29 1017.69 1017.05 1016.41 1015.69 1014.89 1013.73 1013.33 1012.65 1012.41 1012.01 1011.33 1010.21 1009.77 1009.65 1008.65 1008.05 1007.53 1006.81 1006.09 1005.93 1005.61 1005.37 1005.13 1005.05 1004.97 1004.93 1004.93 1004.93 1005.01 1005.13 1005.25 1005.41 1005.61 1005.73 1005.81 1005.97 1006.13 1006.25 1006.45
1028.45 1028.41 1028.41 1028.33 1028.33 1028.37 1028.13 1027.81 1027.77 1027.73 1027.53 1027.21 1026.93 1026.81 1026.57 1026.33 1025.89 1025.45 1025.09 1024.81 1024.53 1024.21 1023.93 1023.65 1023.29 1022.85 1022.37 1021.89 1021.33 1020.77 1020.21 1019.81 1019.33 1018.81 1018.21 1017.57 1017.09 1016.29 1015.17 1014.33 1013.85 1013.17 1012.53 1011.93 1011.77 1011.49 1010.65 1009.81 1009.45 1008.53 1007.73 1007.13 1006.33 1005.61 1005.21 1004.97 1004.69 1004.53 1004.41 1004.37 1004.33 1004.29 1004.29 1004.29 1004.37 1004.53 1004.69 1004.89 1005.09 1005.29 1005.45 1005.61 1005.81 1006.05
1028.49 1028.57 1028.41 1028.33 1028.37 1028.37 1028.09 1027.85 1027.73 1027.73 1027.41 1027.05 1026.89 1026.77 1026.61 1026.25 1025.89 1025.45 1025.17 1024.97 1024.49 1024.13 1023.81 1023.45 1023.13 1022.65 1022.25 1021.77 1021.25 1020.65 1020.09 1019.53 1019.05 1018.77 1018.49 1017.77 1017.25 1016.57 1015.85 1014.85 1013.97 1013.21 1012.53 1011.89 1011.65 1011.41 1010.89 1009.93 1009.37 1008.65 1007.53 1006.57 1005.45 1005.29 1004.61 1004.33 1004.09 1003.97 1003.93 1003.81 1003.73 1003.69 1003.69 1003.65 1003.65 1003.77 1003.93 1004.13 1004.41 1004.69 1004.93 1005.13 1005.45 1005.77
1028.41 1028.21 1028.33 1028.45 1028.41 1028.29 1028.05 1027.73 1027.53 1027.57 1027.37 1027.05 1026.93 1026.81 1026.65 1026.25 1025.89 1025.49 1025.41 1025.13 1024.65 1024.21 1023.85 1023.37 1023.01 1022.49 1022.01 1021.61 1021.21 1020.61 1020.01 1019.45 1018.93 1018.69 1018.49 1017.89 1017.49 1016.81 1015.81 1014.89 1013.73 1012.49 1011.97 1011.85 1011.57 1011.37 1010.33 1010.05 1009.37 1009.05 1007.69 1006.41 1004.41 1004.65 1004.01 1003.93 1003.81 1003.77 1003.61 1003.45 1003.25 1003.13 1003.05 1003.01 1003.01 1003.09 1003.21 1003.41 1003.65 1004.01 1004.33 1004.65 1005.05 1005.33
1028.01 1028.13 1028.17 1028.21 1028.17 1028.01 1027.77 1027.61 1027.49 1027.37 1027.25 1026.97 1026.85 1026.81 1026.53 1026.29 1025.81 1025.61 1025.45 1025.05 1024.81 1024.53 1024.21 1023.77 1023.33 1022.89 1022.25 1021.69 1021.21 1020.69 1020.05 1019.49 1018.97 1018.57 1018.21 1017.89 1017.53 1016.93 1016.09 1015.33 1014.81 1014.21 1012.97 1011.81 1011.65 1011.45 1010.65 1010.25 1009.49 1008.93 1008.69 1008.05 1005.77 1003.97 1004.33 1004.01 1003.73 1003.37 1003.21 1003.09 1002.97 1002.65 1002.57 1002.53 1002.49 1002.49 1002.61 1002.73 1002.93 1003.25 1003.69 1004.05 1004.49 1004.81
1028.17 1028.13 1028.17 1028.25 1028.17 1028.01 1027.77 1027.57 1027.49 1027.21 1026.93 1026.85 1026.73 1026.69 1026.53 1026.33 1026.09 1025.73 1025.41 1025.05 1024.81 1024.65 1024.25 1023.85 1023.45 1022.97 1022.45 1021.89 1021.37 1020.85 1020.25 1019.61 1019.01 1018.49 1018.05 1017.69 1017.33 1016.85 1016.01 1015.13 1014.53 1014.05 1013.33 1012.41 1011.89 1011.61 1010.77 1010.05 1009.33 1008.57 1008.01 1007.65 1006.69 1005.41 1003.77 1003.97 1003.21 1003.01 1002.73 1002.65 1002.57 1002.25 1002.25 1002.13 1002.09 1002.05 1002.05 1002.17 1002.37 1002.61 1002.97 1003.37 1003.81 1004.05
1028.25 1028.33 1028.41 1028.29 1028.13 1027.97 1027.73 1027.53 1027.37 1027.01 1026.81 1026.69 1026.61 1026.53 1026.37 1026.05 1025.77 1025.61 1025.45 1025.25 1024.97 1024.73 1024.37 1024.01 1023.57 1023.13 1022.69 1022.21 1021.57 1021.01 1020.37 1019.77 1019.13 1018.53 1017.97 1017.49 1017.05 1016.61 1016.13 1015.45 1014.61 1013.81 1013.13 1012.41 1011.97 1011.45 1010.77 1009.85 1009.45 1008.69 1007.93 1007.33 1005.85 1005.45 1004.49 1003.53 1002.93 1002.49 1002.25 1002.17 1002.09 1001.85 1001.77 1001.69 1001.65 1001.57 1001.57 1001.65 1001.85 1002.09 1002.41 1002.77 1003.21 1003.53
1028.13 1028.41 1028.45 1028.41 1028.21 1027.97 1027.65 1027.41 1027.05 1026.81 1026.73 1026.57 1026.53 1026.37 1026.09 1025.93 1025.77 1025.61 1025.41 1025.21 1025.01 1024.81 1024.53 1024.17 1023.77 1023.29 1022.97 1022.49 1021.89 1021.29 1020.61 1019.93 1019.33 1018.61 1017.89 1017.25 1016.81 1016.33 1015.77 1015.25 1014.73 1014.25 1013.53 1012.69 1011.97 1011.41 1010.97 1010.41 1009.61 1009.09 1008.25 1007.41 1006.21 1004.93 1004.57 1004.05 1002.65 1001.93 1001.81 1001.73 1001.57 1001.33 1001.17 1001.13 1001.05 1000.97 1001.01 1001.17 1001.33 1001.61 1001.97 1002.33 1002.69 1003.09
1028.37 1028.37 1028.33 1028.21 1027.97 1027.77 1027.61 1027.21 1026.81 1026.73 1026.65 1026.57 1026.45 1026.29 1026.05 1025.89 1025.81 1025.69 1025.45 1025.25 1025.13 1024.93 1024.61 1024.37 1023.97 1023.53 1023.09 1022.77 1022.21 1021.53 1020.93 1020.29 1019.53 1018.73 1017.97 1017.33 1016.77 1016.21 1015.61 1014.97 1014.45 1013.93 1013.41 1012.77 1012.13 1011.57 1011.09 1010.61 1009.81 1009.13 1008.65 1007.77 1006.65 1005.37 1004.45 1003.49 1002.97 1002.49 1002.21 1001.61 1001.45 1000.93 1000.61 1000.53 1000.41 1000.45 1000.57 1000.77 1001.05 1001.33 1001.69 1002.17 1002.65 1003.17
1028.37 1028.41 1028.29 1028.09 1027.89 1027.73 1027.41 1026.85 1026.73 1026.57 1026.53 1026.45 1026.37 1026.21 1026.05 1025.93 1025.85 1025.69 1025.61 1025.41 1025.21 1024.93 1024.77 1024.61 1024.25 1023.77 1023.29 1023.05 1022.53 1021.85 1021.17 1020.37 1019.61 1018.93 1018.13 1017.49 1016.93 1016.41 1015.73 1015.05 1014.45 1013.81 1013.29 1012.77 1012.25 1011.77 1011.25 1010.73 1010.01 1009.25 1008.53 1007.81 1007.05 1006.09 1005.33 1004.65 1003.93 1003.29 1002.85 1002.33 1001.45 1000.53 1000.05 999.77 999.85 999.97 1000.21 1000.49 1000.77 1001.09 1001.33 1001.69 1002.29 1002.69
1028.41 1028.33 1028.17 1027.93 1027.73 1027.21 1026.89 1026.81 1026.61 1026.53 1026.49 1026.41 1026.25 1026.13 1026.05 1026.01 1025.85 1025.77 1025.61 1025.41 1025.29 1025.13 1024.97 1024.69 1024.33 1023.93 1023.45 1022.97 1022.41 1021.85 1021.21 1020.49 1019.73 1019.17 1018.53 1017.73 1016.89 1016.21 1015.49 1014.61 1013.81 1013.49 1013.13 1012.77 1012.33 1011.85 1011.21 1010.57 1010.09 1009.53 1008.89 1008.05 1007.45 1006.73 1005.89 1005.09 1004.17 1003.73 1003.01 1002.57 1001.73 1000.53 1000.29 999.65 999.65 999.85 1000.17 1000.53 1000.85 1001.13 1001.33 1001.61 1001.89 1002.17
1028.21 1028.13 1027.89 1027.61 1027.41 1027.29 1027.13 1027.01 1027.01 1026.61 1026.57 1026.25 1026.05 1026.01 1026.05 1025.97 1025.85 1025.73 1025.61 1025.49 1025.41 1025.25 1025.05 1024.77 1024.37 1024.01 1023.57 1023.01 1022.41 1021.89 1021.37 1020.69 1019.89 1019.37 1018.89 1018.21 1017.45 1016.81 1016.05 1015.41 1014.53 1013.53 1012.93 1012.65 1012.41 1012.05 1011.45 1010.73 1010.09 1009.65 1009.25 1008.61 1007.49 1006.97 1006.41 1005.77 1004.97 1004.01 1003.33 1002.69 1002.25 1002.05 1001.41 1000.37 1000.25 1000.33 1000.49 1000.73 1001.05 1001.33 1001.57 1001.89 1002.21 1002.45
1027.81 1027.61 1027.65 1027.57 1027.53 1027.01 1026.53 1026.37 1026.25 1026.17 1026.21 1026.21 1026.09 1025.89 1025.89 1025.81 1025.81 1025.69 1025.53 1025.29 1025.21 1025.13 1025.13 1024.89 1024.49 1023.97 1023.57 1023.13 1022.65 1022.13 1021.65 1021.05 1020.29 1019.57 1019.05 1018.57 1017.77 1017.05 1016.37 1015.53 1014.85 1014.29 1013.33 1012.53 1012.13 1011.89 1011.53 1011.01 1010.29 1009.73 1009.53 1009.29 1008.53 1007.77 1007.05 1006.33 1005.49 1004.77 1004.17 1003.61 1003.13 1002.33 1001.73 1001.61 1001.41 1001.09 1001.09 1001.05 1001.33 1001.93 1002.29 1002.37 1002.53 1002.57
1027.57 1027.41 1027.13 1026.73 1026.57 1026.69 1026.61 1026.37 1026.17 1026.09 1026.05 1025.81 1025.77 1025.73 1025.57 1025.57 1025.53 1025.41 1025.25 1025.05 1025.01 1025.17 1025.09 1024.73 1024.53 1024.21 1023.85 1023.41 1022.81 1022.41 1021.81 1021.25 1020.69 1020.01 1019.37 1018.69 1018.37 1017.45 1016.89 1016.37 1015.69 1014.85 1014.13 1013.21 1012.65 1012.09 1011.69 1011.21 1010.61 1009.93 1009.45 1009.45 1009.21 1008.69 1007.41 1006.13 1005.97 1005.45 1004.77 1004.05 1003.53 1002.93 1002.85 1002.69 1002.45 1002.29 1001.81 1001.53 1002.17 1002.53 1002.93 1003.33 1003.45 1003.37
1027.29 1027.13 1026.93 1027.09 1027.05 1026.65 1026.53 1026.29 1026.09 1025.89 1025.93 1025.85 1025.57 1025.33 1025.37 1025.37 1025.21 1025.09 1025.09 1025.09 1025.09 1025.13 1025.01 1024.89 1024.61 1024.29 1024.01 1023.53 1023.13 1022.69 1022.21 1021.53 1020.89 1020.25 1019.89 1019.17 1018.57 1018.05 1017.41 1016.73 1016.09 1015.57 1015.01 1014.29 1013.57 1012.89 1012.05 1011.41 1010.85 1010.17 1009.41 1009.05 1009.13 1008.61 1007.69 1007.37 1007.05 1006.17 1005.65 1005.05 1003.57 1003.33 1003.85 1003.53 1003.57 1003.45 1003.01 1002.93 1002.89 1003.05 1003.41 1003.65 1003.89 1003.97
1027.09 1026.89 1026.57 1026.45 1026.89 1027.05 1027.05 1026.41 1026.01 1025.93 1025.81 1025.65 1025.53 1025.29 1025.21 1025.13 1025.09 1025.01 1024.93 1024.89 1025.01 1024.89 1024.81 1024.65 1024.57 1024.33 1024.05 1023.69 1023.33 1022.97 1022.49 1022.01 1021.37 1020.57 1019.97 1019.57 1018.85 1018.41 1017.93 1017.25 1016.57 1015.93 1015.33 1014.61 1013.89 1013.29 1012.85 1012.05 1011.17 1010.13 1009.37 1008.93 1008.81 1008.49 1007.69 1007.77 1007.49 1006.69 1005.37 1004.69 1005.05 1004.97 1004.69 1004.81 1004.69 1004.17 1003.61 1003.57 1003.41 1003.81 1004.25 1004.29 1004.57 1004.77
1026.81 1027.09 1026.85 1026.65 1026.29 1026.65 1026.25 1025.77 1025.93 1025.89 1025.69 1025.49 1025.37 1025.25 1025.09 1024.73 1024.73 1024.77 1024.53 1024.81 1024.97 1024.77 1024.69 1024.57 1024.37 1024.17 1023.93 1023.73 1023.41 1023.05 1022.65 1022.17 1021.57 1021.09 1020.49 1019.93 1019.53 1018.81 1018.09 1017.69 1017.21 1016.57 1015.93 1015.37 1014.73 1013.97 1013.29 1012.65 1012.05 1011.45 1010.69 1009.73 1008.49 1007.61 1007.93 1008.81 1008.73 1008.13 1007.29 1007.01 1006.57 1006.13 1005.77 1005.41 1005.17 1004.73 1004.41 1004.57 1004.77 1004.65 1005.17 1005.77 1005.81 1005.65
1026.61 1026.77 1026.89 1026.65 1026.49 1026.57 1026.05 1025.81 1025.65 1025.53 1025.61 1025.45 1025.21 1025.05 1024.93 1024.77 1024.53 1024.49 1024.61 1025.01 1024.81 1024.65 1024.65 1024.61 1024.29 1024.13 1023.93 1023.69 1023.37 1023.05 1022.73 1022.37 1021.85 1021.29 1020.89 1020.45 1019.97 1019.45 1018.85 1018.05 1017.53 1017.09 1016.45 1015.77 1015.33 1014.73 1014.09 1013.49 1012.81 1012.25 1011.61 1010.77 1010.69 1010.97 1010.53 1009.57 1009.33 1008.85 1008.41 1007.97 1007.25 1006.85 1006.69 1006.09 1005.37 1005.21 1005.61 1005.73 1005.77 1005.93 1006.25 1006.29 1006.33 1006.41
1026.49 1026.41 1026.49 1026.45 1026.33 1026.21 1026.33 1026.13 1025.81 1025.37 1025.25 1025.25 1025.13 1024.89 1024.81 1024.69 1024.57 1024.45 1024.73 1024.61 1024.17 1024.21 1024.25 1024.21 1024.09 1024.05 1023.85 1023.69 1023.41 1023.09 1022.77 1022.41 1022.01 1021.53 1021.17 1020.77 1020.33 1019.77 1019.49 1019.01 1018.05 1017.53 1017.09 1016.21 1015.65 1015.25 1014.85 1014.45 1013.93 1013.49 1013.13 1012.81 1012.33 1011.69 1011.21 1010.33 1009.37 1009.09 1009.53 1008.89 1008.49 1008.29 1007.53 1006.61 1006.17 1006.61 1006.81 1006.65 1006.85 1007.05 1006.77 1006.69 1007.09 1007.09
1026.61 1026.33 1026.21 1025.93 1025.81 1026.05 1025.77 1025.57 1025.61 1025.13 1024.93 1024.97 1024.89 1024.65 1024.45 1024.33 1024.29 1024.21 1024.13 1024.01 1024.09 1024.01 1023.97 1023.85 1023.73 1023.81 1023.77 1023.57 1023.53 1023.37 1022.93 1022.53 1022.09 1021.81 1021.45 1021.05 1020.81 1020.37 1019.73 1019.33 1018.73 1018.09 1017.53 1016.69 1016.13 1015.77 1015.45 1015.17 1014.89 1014.49 1014.09 1013.73 1013.41 1013.21 1013.01 1012.45 1011.85 1011.65 1010.81 1010.21 1009.73 1008.85 1008.41 1008.33 1008.29 1007.97 1007.89 1007.81 1007.69 1007.65 1007.53 1007.65 1007.49 1007.29
1026.37 1026.65 1026.45 1026.33 1025.93 1025.97 1025.89 1025.73 1025.53 1025.25 1024.85 1024.69 1024.61 1024.49 1024.37 1024.13 1024.01 1023.93 1023.81 1023.77 1023.73 1023.77 1023.85 1023.73 1023.69 1023.65 1023.45 1023.45 1023.37 1023.21 1022.81 1022.49 1022.33 1022.13 1021.77 1021.37 1020.97 1020.61 1020.17 1019.73 1019.33 1018.93 1018.05 1017.17 1016.73 1016.41 1016.29 1016.21 1015.93 1015.61 1015.13 1014.57 1014.09 1013.45 1013.01 1012.89 1012.61 1011.97 1011.41 1010.93 1010.65 1010.33 1010.25 1009.57 1009.37 1009.13 1008.77 1008.77 1008.53 1008.01 1008.05 1007.69 1007.73 1007.73
1026.37 1026.37 1026.17 1026.29 1026.05 1025.85 1025.61 1025.37 1025.25 1025.13 1024.81 1024.53 1024.45 1024.29 1024.25 1024.13 1023.97 1023.73 1023.69 1023.73 1023.81 1023.69 1023.53 1023.45 1023.45 1023.37 1023.29 1023.29 1023.33 1023.29 1022.73 1022.37 1022.25 1022.05 1021.89 1021.53 1021.05 1020.69 1020.37 1019.93 1019.41 1019.17 1018.65 1017.53 1017.21 1016.93 1016.85 1016.93 1016.53 1015.93 1015.41 1014.81 1014.09 1013.41 1012.77 1012.37 1012.33 1012.33 1012.13 1012.05 1011.77 1011.41 1011.05 1010.65 1010.45 1010.09 1010.17 1009.85 1009.25 1008.81 1008.53 1008.89 1009.25 1008.81
1026.05 1025.97 1025.81 1025.85 1025.69 1025.41 1025.45 1025.17 1024.97 1024.93 1024.61 1024.37 1024.21 1024.01 1023.85 1023.85 1023.73 1023.69 1023.73 1023.73 1023.77 1023.69 1023.65 1023.41 1023.25 1023.25 1023.05 1023.05 1023.09 1023.09 1022.73 1022.45 1022.25 1022.01 1021.89 1021.73 1021.33 1020.77 1020.41 1020.25 1019.93 1019.53 1019.21 1018.57 1018.13 1017.77 1017.41 1017.05 1016.65 1016.13 1015.57 1014.89 1014.05 1013.49 1014.01 1014.25 1014.01 1013.61 1013.33 1013.01 1012.61 1012.33 1012.01 1011.65 1011.33 1011.13 1010.97 1010.81 1010.25 1009.81 1009.53 1009.17 1009.29 1009.53
1025.65 1025.61 1025.37 1025.17 1025.25 1025.17 1025.09 1024.97 1024.81 1024.69 1024.37 1024.13 1023.93 1023.81 1023.69 1023.49 1023.49 1023.45 1023.33 1023.29 1023.33 1023.37 1023.21 1023.09 1023.09 1023.05 1022.97 1022.89 1022.93 1022.97 1022.69 1022.21 1022.17 1022.09 1021.89 1021.65 1021.53 1021.25 1020.81 1020.53 1020.37 1019.97 1019.69 1019.21 1018.57 1017.89 1017.33 1016.97 1016.73 1016.45 1016.01 1015.65 1015.53 1015.21 1015.17 1015.01 1014.73 1014.33 1013.89 1013.49 1013.33 1013.05 1012.73 1012.53 1012.37 1012.13 1011.89 1011.81 1011.69 1011.57 1011.45 1011.29 1010.53 1011.05
1025.17 1025.21 1025.05 1024.93 1024.85 1024.69 1024.61 1024.57 1024.45 1024.41 1024.25 1023.93 1023.61 1023.57 1023.53 1023.33 1023.05 1022.97 1023.09 1023.13 1023.09 1022.97 1022.93 1022.93 1022.81 1022.73 1022.61 1022.57 1022.77 1022.69 1022.45 1022.29 1022.25 1022.01 1021.69 1021.57 1021.49 1021.33 1021.09 1020.69 1020.37 1020.09 1019.69 1019.49 1018.89 1018.01 1017.61 1017.13 1016.85 1016.77 1016.45 1016.53 1016.49 1016.09 1016.05 1015.69 1015.49 1015.25 1014.93 1014.57 1014.05 1013.53 1013.41 1013.33 1013.09 1012.85 1012.65 1012.65 1012.65 1012.45 1012.25 1012.13 1012.13 1012.29
1024.65 1024.69 1024.57 1024.45 1024.45 1024.37 1024.25 1024.17 1024.17 1024.01 1023.89 1023.65 1023.45 1023.25 1023.17 1023.17 1023.09 1022.89 1022.85 1022.93 1022.89 1022.81 1022.77 1022.65 1022.53 1022.49 1022.49 1022.45 1022.41 1022.09 1022.01 1022.25 1022.21 1022.01 1021.81 1021.53 1021.37 1021.25 1021.05 1020.85 1020.49 1020.13 1019.81 1019.77 1019.49 1018.45 1018.09 1017.65 1017.21 1017.01 1016.77 1016.81 1016.85 1016.81 1016.57 1016.33 1016.17 1015.85 1015.45 1015.05 1014.81 1014.49 1014.17 1013.85 1013.53 1013.41 1013.37 1013.41 1013.53 1013.33 1013.17 1012.97 1012.93 1012.85
Wind_Speed
5 6 7 7 7 6 5 6 6 6 5 5 5 5 5 4 3 7 7 8 7 5 7 7 6 7 8 8 8 8 8 12 14 9 8 8 8 12 18 16 15 15 15 15 15 19 19 21 21 23 24 24 23 22 21 20 19 19 20 19 20 21 20 19 18 22 22 24 25 23 23 23 22 21
5 6 6 6 7 6 6 6 5 5 5 5 6 5 5 4 5 3 5 8 3 8 9 6 8 11 11 9 8 7 8 12 14 9 9 9 9 16 17 16 14 14 15 14 15 15 18 20 21 23 24 24 23 23 22 20 19 20 20 19 19 18 19 18 18 20 21 23 21 21 22 22 23 22
6 6 7 6 6 5 6 5 5 5 5 6 5 5 5 5 3 3 3 6 4 3 10 10 10 11 12 11 10 9 8 11 14 10 9 9 14 20 13 17 15 15 15 15 15 18 16 17 20 21 23 24 24 23 23 22 20 20 20 18 17 17 17 18 18 18 25 25 24 21 21 23 23 24
6 6 7 5 5 4 4 5 5 5 5 4 5 5 5 3 3 3 2 4 10 8 7 10 11 12 12 13 11 12 10 10 14 10 9 11 14 10 10 14 17 16 17 16 16 17 16 16 18 21 23 23 24 23 22 22 21 19 17 16 16 15 15 17 19 19 21 26 25 24 23 23 23 24
5 6 5 4 3 3 4 4 5 5 5 4 5 4 5 5 3 2 3 4 8 8 5 7 8 10 10 11 11 12 12 13 12 11 10 10 9 9 9 11 17 17 18 17 17 17 17 16 20 22 22 23 22 22 20 18 19 16 14 15 14 13 15 17 18 19 19 23 25 25 25 24 24 25
4 4 4 3 3 3 4 4 4 4 5 4 5 5 5 5 6 2 1 3 5 10 9 8 8 9 8 9 10 10 12 13 13 14 12 10 8 10 10 10 11 18 18 18 18 17 18 18 18 17 19 20 19 19 18 17 16 16 15 14 14 13 15 16 17 18 17 18 24 24 25 25 25 25
3 4 3 3 3 3 4 4 4 3 4 4 4 5 3 4 5 5 2 2 5 8 10 9 10 9 9 9 11 11 10 11 11 13 13 12 10 9 10 11 10 15 18 19 19 19 18 18 18 17 18 19 19 19 18 17 16 15 16 15 14 15 15 15 15 15 17 16 19 25 26 25 26 27
3 4 4 3 3 3 4 4 5 4 4 4 4 4 5 4 6 5 5 3 3 4 9 9 9 9 9 9 10 9 9 10 10 10 11 11 11 11 10 11 11 14 20 21 20 19 18 17 17 18 17 17 19 19 19 18 17 16 17 17 16 15 15 15 15 15 14 15 16 20 26 26 28 30
3 3 4 2 2 3 4 4 4 5 5 4 4 5 5 5 5 6 5 6 4 6 9 10 8 9 8 8 9 9 10 10 9 9 11 11 12 13 11 10 10 17 20 19 19 18 17 17 17 17 17 18 19 20 19 19 19 18 18 18 18 16 15 15 15 13 13 13 14 16 23 27 29 30
3 4 3 2 1 3 3 3 4 4 5 4 4 5 6 6 6 6 7 6 7 6 8 9 11 8 9 9 8 9 9 10 12 11 10 10 10 11 12 9 8 9 9 9 10 11 12 13 16 17 18 18 19 19 20 20 20 19 19 18 18 17 16 15 14 14 13 13 13 14 17 25 27 29
3 3 3 2 1 1 1 3 4 4 5 5 5 4 5 5 5 7 6 7 7 7 7 7 7 9 8 7 11 10 9 9 8 12 14 14 9 8 11 15 11 8 10 9 13 12 13 17 15 16 19 19 20 20 21 20 20 20 20 19 17 18 17 16 15 15 15 13 12 13 14 17 25 30
3 3 2 2 1 1 1 2 3 3 5 5 6 6 4 5 6 6 6 6 7 7 7 7 9 7 9 9 7 9 9 10 9 8 10 13 15 14 9 8 12 13 10 9 8 9 12 14 16 18 18 19 19 20 19 22 21 22 21 19 17 17 16 16 16 16 15 13 12 12 13 15 18 27
2 1 2 2 2 2 4 5 6 6 5 3 5 7 4 5 5 6 6 6 7 7 7 8 7 8 9 9 10 11 11 11 13 13 11 12 12 13 14 10 9 8 12 12 10 9 9 12 12 10 10 10 14 16 19 17 21 21 18 18 17 16 16 16 16 16 15 14 12 11 12 14 16 19
2 1 0 2 3 3 5 6 7 10 11 10 5 4 4 4 5 5 6 7 6 6 8 8 9 10 10 11 11 11 11 11 12 13 13 14 13 13 12 12 6 10 10 11 13 10 8 10 12 9 10 9 11 9 9 9 13 16 17 18 17 17 16 16 16 17 17 15 14 13 13 13 15 16
1 0 2 3 4 4 5 4 7 11 11 11 11 12 11 8 4 4 6 6 6 7 7 8 8 8 10 11 11 10 11 11 13 13 13 13 13 14 16 19 14 0 10 13 13 12 10 10 12 9 8 9 9 9 10 15 18 19 19 19 19 18 17 16 17 17 17 17 16 15 14 14 14 16
2 1 2 3 3 3 4 4 4 8 11 11 11 11 11 11 12 9 4 5 7 7 7 9 9 8 9 11 11 11 11 12 12 12 12 13 15 15 15 13 14 12 12 13 12 13 12 9 10 11 9 8 8 10 14 17 18 19 19 19 19 19 18 17 17 17 18 18 17 16 15 14 14 15
2 1 2 3 4 3 7 5 4 4 7 9 11 10 9 10 11 12 12 10 6 5 6 6 10 9 9 11 11 12 13 12 13 14 13 13 12 12 14 13 14 15 11 11 12 13 14 10 9 9 10 9 9 10 13 18 18 19 20 19 19 19 19 18 18 17 18 18 18 17 16 15 14 15
3 2 2 3 6 6 5 4 4 5 5 6 6 6 6 6 8 11 11 11 11 8 5 6 8 11 8 10 12 13 12 12 13 13 14 15 15 14 14 17 16 13 10 12 13 12 13 9 9 10 11 8 9 10 13 18 19 20 20 20 19 19 19 19 18 18 17 17 18 18 17 15 15 14
2 2 2 3 4 5 6 5 5 5 6 5 6 6 7 6 6 6 7 7 7 7 6 6 8 10 9 9 11 12 11 11 11 11 14 15 15 14 15 12 11 12 10 12 11 12 13 9 11 11 11 11 11 10 13 18 20 20 20 20 20 19 19 19 19 18 18 17 18 18 16 16 15 15
1 1 3 3 4 5 6 8 10 8 5 4 4 6 7 8 7 6 6 10 11 9 8 7 8 9 11 14 13 13 13 11 11 12 11 11 12 14 13 13 14 13 11 11 10 10 13 11 11 13 11 11 12 11 10 14 19 20 19 19 19 19 19 19 19 19 18 17 18 17 17 16 16 15
1 2 2 2 3 5 6 9 10 10 7 4 5 5 6 7 7 8 7 11 13 13 14 14 15 16 17 17 19 19 21 16 15 11 12 14 14 15 15 14 14 14 13 10 8 10 14 11 12 15 13 13 14 13 11 9 13 17 17 18 19 19 19 19 19 19 19 18 17 17 17 17 15 16
2 3 4 5 3 4 6 10 10 8 5 4 4 5 6 7 7 8 8 7 8 12 13 14 15 16 16 17 17 18 19 21 16 11 14 15 14 14 14 17 14 14 11 10 10 11 11 13 11 12 12 14 11 10 9 9 9 11 12 16 18 18 18 18 18 19 19 19 18 17 17 17 16 11
2 3 3 5 5 5 7 11 10 8 5 4 4 4 4 6 8 8 8 8 9 10 10 11 11 12 13 12 11 13 20 20 17 12 12 12 14 14 15 15 15 12 9 10 13 12 10 12 11 11 12 13 12 5 9 6 5 5 6 7 9 13 16 17 17 18 19 19 18 18 17 17 15 8
4 4 5 5 7 10 11 11 10 9 6 4 3 3 4 6 8 8 7 8 8 8 8 9 9 10 11 11 11 11 12 13 14 14 12 12 12 14 15 13 13 13 12 13 16 13 11 9 12 10 9 12 12 10 9 11 9 8 7 7 7 11 13 14 12 16 17 18 19 18 18 17 16 9
2 6 6 6 7 10 12 11 9 8 8 6 3 3 4 3 6 8 6 9 10 7 8 8 9 9 10 10 10 11 11 12 13 13 13 11 11 12 15 15 14 13 12 13 20 13 9 11 12 10 10 8 11 15 12 9 10 8 7 7 8 8 6 7 6 7 11 17 18 18 18 18 21 14
2 3 5 6 8 12 11 10 8 7 7 7 3 5 7 9 11 7 5 6 6 7 7 8 8 9 9 10 11 11 12 12 13 13 12 11 12 11 12 14 16 14 15 16 19 12 14 11 14 15 12 12 12 9 11 11 9 8 6 6 7 8 7 7 6 7 7 6 8 11 13 19 20 22
3 3 4 6 9 11 11 9 7 6 6 5 4 8 9 9 10 7 6 6 7 7 7 8 9 9 9 10 11 11 12 12 13 13 13 13 13 13 13 14 12 11 12 13 14 13 11 12 14 15 14 12 13 10 7 7 7 5 5 5 7 8 7 7 7 7 7 6 6 12 14 17 21 22
3 5 5 6 11 11 10 8 6 5 4 3 7 8 9 9 7 5 6 6 7 6 7 8 9 9 9 9 10 11 11 12 13 13 13 14 14 14 14 14 13 11 12 11 13 13 12 12 12 14 14 13 13 11 10 7 7 7 9 9 8 8 8 7 8 7 6 6 6 7 7 8 9 12
3 6 9 11 10 10 7 6 5 5 6 7 7 7 8 7 6 6 6 6 7 7 8 8 8 9 9 8 10 10 11 12 11 11 12 13 12 12 12 11 9 10 10 11 12 13 12 11 14 14 12 11 13 11 10 9 8 9 9 10 8 5 5 5 8 6 5 6 5 6 8 9 9 11
7 8 9 9 8 5 4 3 3 3 4 8 7 6 5 4 5 5 6 6 6 7 7 8 8 9 9 9 10 10 10 10 11 11 12 13 14 14 14 15 15 13 11 12 13 13 13 13 11 12 10 13 11 11 12 12 10 10 8 9 9 4 5 5 4 4 5 5 5 5 4 5 8 10
3 4 3 4 6 6 7 4 4 3 5 4 5 4 3 3 3 3 4 5 5 5 6 7 8 8 8 8 8 10 10 11 11 11 11 12 12 13 13 13 14 16 15 12 12 13 13 14 14 12 10 12 14 14 12 10 8 11 11 10 10 6 7 7 6 6 6 7 7 7 6 6 5 2
4 2 3 3 2 3 3 4 5 6 4 3 3 5 4 4 3 4 5 4 2 4 4 6 6 7 8 9 9 9 9 10 11 11 11 11 13 13 12 12 14 14 15 15 14 15 14 14 14 11 7 9 12 13 11 9 9 9 9 8 6 8 11 12 9 8 7 8 10 10 9 7 6 3
2 2 4 6 6 5 5 4 6 6 6 7 5 4 4 5 5 5 6 7 7 6 6 7 8 8 8 9 9 9 9 10 11 10 11 11 11 12 11 12 13 14 16 17 15 15 13 13 14 13 8 3 8 13 14 16 14 10 10 11 9 12 12 11 13 11 7 10 10 10 12 10 10 10
1 2 3 3 3 5 5 6 5 6 5 5 6 6 5 4 5 5 5 4 5 5 5 6 6 7 7 8 9 9 9 10 10 11 10 11 10 11 12 13 13 13 13 13 14 14 15 14 12 10 9 2 5 11 18 16 14 13 9 7 10 16 12 11 12 11 10 8 7 12 13 12 11 9
0 2 4 6 3 3 4 4 6 6 4 6 5 6 6 6 5 5 4 6 5 6 6 6 5 6 6 7 8 9 9 9 10 10 10 10 11 10 10 12 13 14 14 14 15 14 13 15 15 14 11 10 1 0 19 20 14 12 13 16 13 9 12 11 10 11 13 12 11 11 12 14 13 10
4 3 4 6 6 4 4 6 5 5 6 6 5 6 5 7 5 4 5 4 3 5 5 6 7 6 7 6 7 8 8 9 9 9 10 11 11 11 11 11 11 13 12 12 13 14 14 14 14 13 14 14 16 20 19 20 24 16 12 11 12 12 10 10 10 12 14 13 12 11 13 10 9 11
6 4 5 6 6 4 5 6 5 6 6 7 7 5 5 6 6 7 4 2 4 4 5 5 6 6 6 7 7 7 7 8 9 9 9 9 9 9 11 12 11 11 12 12 11 13 13 14 15 15 15 16 17 14 13 12 20 28 17 12 13 13 11 9 12 15 13 12 12 12 9 9 10 11
5 5 4 6 6 6 6 6 6 5 6 7 7 6 6 6 6 6 4 3 5 4 5 5 6 5 6 6 7 8 8 7 7 9 9 9 10 10 9 10 11 11 11 11 11 12 12 13 14 14 12 13 14 15 15 14 14 22 30 20 14 13 11 12 15 14 12 11 11 9 8 12 10 7
6 6 7 7 7 6 6 6 6 6 6 7 7 7 7 6 6 6 5 5 4 4 5 5 5 5 5 6 5 5 7 7 9 9 9 9 9 9 11 10 10 11 10 11 11 12 13 14 14 13 13 12 13 12 9 9 13 10 19 32 19 16 15 14 12 10 10 10 9 7 7 3 6 11
7 6 7 6 7 6 6 6 6 6 7 7 7 7 6 7 7 7 6 6 4 4 4 5 5 6 6 5 6 6 5 6 6 6 8 9 8 8 8 9 8 8 10 11 11 11 11 12 12 12 11 9 8 8 7 5 2 7 11 20 35 26 17 14 14 10 11 10 6 7 10 11 13 10
6 6 7 6 6 6 7 6 6 6 7 7 6 6 7 6 6 7 6 5 5 6 6 6 5 5 6 5 5 4 6 7 6 6 7 8 9 8 10 10 9 8 9 10 11 11 12 9 11 15 10 7 8 7 3 10 15 13 14 13 21 29 30 24 18 16 14 11 7 7 10 11 9 11
6 7 7 6 7 7 6 7 7 6 7 7 7 7 7 5 6 6 6 5 4 4 5 6 6 5 6 6 5 4 5 6 6 7 7 7 8 10 10 8 9 9 9 10 10 9 8 7 8 9 9 9 11 14 14 11 11 11 10 10 10 16 24 30 32 27 21 15 12 12 7 5 5 12
6 7 7 7 6 7 7 7 7 6 7 7 7 7 7 7 6 6 6 6 5 5 6 7 6 5 6 6 5 4 4 6 5 6 6 6 6 8 9 8 8 7 7 7 8 8 8 8 7 8 9 10 10 9 11 10 9 10 11 11 11 9 10 17 22 25 27 28 26 20 14 7 5 8
7 7 8 8 7 7 7 6 7 6 7 7 7 6 6 8 8 8 6 6 5 6 6 6 7 5 6 6 5 6 5 5 5 5 6 5 6 6 6 8 8 8 7 7 8 8 8 9 8 7 9 10 8 9 10 10 10 9 8 8 9 10 11 9 9 12 17 23 25 23 26 24 19 16
7 7 8 8 7 7 7 7 7 7 7 7 7 7 8 7 7 8 7 6 6 6 6 6 6 7 5 5 4 7 7 5 5 4 3 4 5 6 6 6 8 8 8 7 7 8 8 8 8 8 7 7 7 7 7 7 8 8 8 10 11 9 9 9 11 12 11 11 18 23 21 21 22 24
Wind_Direction
71 67 60 63 55 39 32 30 26 20 19 23 25 40 48 31 24 346 331 329 337 328 1 339 324 337 332 328 328 323 321 322 327 330 329 324 322 320 330 334 333 335 332 333 325 324 322 326 326 324 324 324 323 324 324 325 328 328 326 326 327 328 322 320 253 224 218 215 208 198 196 192 188 189
72 66 59 55 53 35 37 32 20 21 21 20 18 20 17 38 27 347 327 311 308 317 332 333 319 328 329 328 324 318 319 313 324 320 323 318 317 317 325 321 324 325 329 324 323 317 319 319 320 319 320 318 319 319 318 320 321 321 321 324 326 320 320 319 304 242 214 216 215 206 195 191 187 186
72 66 62 52 50 37 34 27 21 20 18 11 12 5 8 6 23 340 313 315 282 350 318 320 316 316 319 324 319 318 317 316 320 319 311 314 309 319 315 319 313 319 319 321 316 320 314 313 310 312 312 313 315 313 315 315 315 315 317 319 316 318 320 320 315 277 222 213 212 209 201 193 188 185
69 68 63 50 49 34 37 25 19 13 9 9 2 357 347 345 350 327 297 275 288 309 301 302 310 314 320 319 319 320 321 316 317 314 314 306 312 307 313 309 316 311 316 312 313 310 309 304 307 307 309 311 310 310 311 310 308 308 309 309 313 313 316 320 317 310 251 216 212 204 205 200 191 187
68 71 68 55 38 33 43 20 11 8 1 0 359 346 348 337 329 322 291 282 293 298 288 297 302 310 315 314 317 317 318 318 319 315 312 309 307 308 305 307 308 309 309 309 306 305 304 303 306 306 304 305 303 304 303 301 300 299 299 304 305 304 308 313 313 307 296 234 212 206 204 201 195 189
67 77 79 49 36 29 37 14 10 0 354 358 352 348 341 322 315 296 245 277 289 304 313 311 309 309 312 308 309 315 314 315 314 316 313 312 307 308 306 304 305 305 306 305 302 302 302 303 299 297 297 294 296 296 294 293 292 292 293 293 294 295 300 306 304 303 301 285 226 211 204 200 194 191
87 75 75 53 37 19 26 7 356 355 350 343 346 333 326 318 308 308 273 271 291 299 307 307 312 312 316 309 309 308 305 300 307 305 311 310 311 302 304 302 301 301 302 301 302 301 301 301 297 295 290 291 292 290 288 287 285 285 286 286 286 290 297 296 296 291 289 288 262 215 207 201 196 192
97 101 75 45 37 25 30 3 353 347 340 340 336 329 323 315 310 305 312 292 262 290 305 314 309 310 311 307 298 303 297 304 301 304 298 302 300 303 301 301 299 303 301 301 300 299 300 297 296 292 286 287 286 285 283 283 282 279 280 282 282 284 286 289 286 287 282 277 278 246 209 204 199 197
115 95 96 95 51 39 32 358 355 335 340 332 331 325 315 317 309 311 310 304 296 293 300 301 300 302 298 294 299 302 311 308 303 296 300 301 304 303 300 297 297 298 297 296 296 300 297 295 291 286 284 281 282 281 280 280 281 279 277 277 278 278 277 278 280 278 281 279 264 266 229 205 203 198
128 118 124 117 86 44 30 347 327 330 329 325 328 324 320 318 316 313 312 311 308 298 292 296 307 312 313 315 307 312 310 314 312 308 300 299 299 304 303 295 294 297 297 300 302 295 292 290 286 286 283 282 279 281 280 279 279 280 277 273 272 273 270 268 268 277 282 278 270 257 256 217 201 201
121 122 137 152 140 31 334 330 327 323 329 326 321 314 309 309 314 313 308 312 305 305 300 302 293 306 307 309 312 316 312 305 303 311 315 312 302 291 303 310 304 294 288 280 277 282 291 295 292 288 284 280 278 277 278 277 276 276 275 272 268 267 266 262 262 270 273 272 270 264 252 248 209 202
115 149 170 169 208 237 261 283 308 314 313 323 320 314 311 310 313 308 308 306 310 305 312 303 317 312 314 314 304 306 317 317 314 316 313 310 316 314 302 288 303 309 302 306 304 297 294 291 288 283 277 275 275 272 272 274 272 272 273 271 266 262 261 261 262 262 263 264 268 264 254 244 240 208
93 144 192 212 235 260 350 331 326 320 316 298 301 310 314 308 304 305 301 312 304 311 304 315 310 318 319 321 322 328 329 330 320 318 315 304 301 304 305 305 298 290 309 310 300 295 291 292 289 284 281 277 276 274 272 271 270 270 269 269 266 260 259 259 260 258 257 261 262 264 259 247 238 226
76 74 240 260 261 329 306 316 328 334 333 327 309 283 295 289 301 300 315 314 314 308 322 321 326 324 327 322 326 321 317 313 313 315 317 312 309 304 299 299 297 309 305 306 305 299 288 286 288 280 279 278 276 272 268 259 265 265 261 260 260 257 254 254 256 257 257 256 257 258 258 254 241 229
134 272 311 303 300 319 329 311 331 334 330 326 325 326 322 323 315 317 320 319 311 324 317 319 320 324 317 320 320 318 316 321 322 318 315 312 316 321 325 321 320 212 315 311 304 301 294 287 286 286 280 283 276 271 264 262 261 261 260 260 259 258 254 251 249 252 254 255 253 253 252 251 246 233
161 245 306 300 306 316 312 333 333 326 323 323 324 324 324 326 333 337 329 312 325 327 327 324 323 320 320 315 319 318 322 321 317 314 314 317 320 319 316 312 309 317 318 307 303 301 293 288 287 291 290 286 281 277 274 265 260 260 259 258 258 256 255 250 249 248 252 252 251 249 247 245 242 236
182 235 299 314 331 325 345 336 320 322 319 323 323 321 323 333 335 332 324 317 304 299 307 318 317 320 317 317 315 316 317 315 314 317 319 318 315 311 306 307 306 310 313 301 302 303 298 302 297 292 291 288 283 279 272 266 262 261 260 258 256 256 254 252 248 246 245 248 248 247 244 242 237 234
200 227 246 327 336 333 339 318 323 328 320 322 324 329 334 331 324 325 322 320 323 325 316 311 309 308 314 307 305 309 313 318 318 318 316 316 316 314 308 303 301 300 312 310 307 295 294 308 305 297 295 288 282 276 271 268 265 261 260 257 254 253 252 250 247 244 242 242 244 242 243 240 235 229
212 237 257 298 314 322 322 308 338 333 324 320 321 330 333 326 322 316 319 328 329 325 324 312 301 301 306 300 303 304 311 310 309 312 310 314 310 304 300 288 293 304 310 309 308 298 299 314 307 305 301 297 284 275 275 268 265 261 257 255 252 249 249 247 246 243 240 238 237 238 237 236 233 227
294 265 265 286 314 316 309 314 336 339 316 315 333 339 329 330 326 323 311 323 323 322 318 314 308 305 305 308 309 312 314 315 316 312 308 306 314 314 308 314 318 316 321 315 307 300 306 317 307 304 297 288 284 281 274 268 263 260 256 255 251 248 245 244 243 242 238 234 233 232 230 229 229 225
346 326 296 292 312 308 308 317 336 332 330 340 347 339 333 323 329 324 332 331 326 325 327 323 320 318 319 321 320 321 320 322 321 318 322 328 329 319 317 316 321 323 323 318 314 311 307 312 311 308 302 295 287 287 280 271 262 256 255 253 253 249 245 241 240 239 236 233 229 227 225 224 223 222
329 298 333 336 315 310 308 322 328 344 339 357 340 345 337 335 333 333 334 331 326 330 327 328 326 320 321 322 322 320 322 324 329 341 335 327 328 319 316 316 316 316 316 318 332 314 306 310 308 301 299 291 279 273 272 264 257 257 254 254 253 252 246 241 238 235 235 231 227 222 218 218 216 216
301 325 338 318 313 308 317 323 335 351 344 345 346 331 334 339 339 328 329 326 332 336 338 335 334 332 330 329 327 325 325 327 333 336 326 324 328 320 318 318 316 315 326 328 335 318 313 311 306 313 312 306 293 264 265 264 264 253 254 251 256 249 244 241 235 233 232 229 225 219 212 211 203 204
335 340 323 323 326 328 328 330 334 341 345 347 335 348 356 342 332 323 324 327 334 327 332 322 330 323 324 326 328 329 328 330 331 331 327 324 323 321 319 318 320 318 312 320 331 321 305 293 302 307 298 308 310 317 304 289 279 270 255 256 257 261 255 249 241 235 231 229 225 218 209 204 193 195
319 319 318 314 312 318 324 323 333 336 345 352 351 359 343 308 303 321 333 330 334 333 330 332 327 328 328 328 329 327 330 329 329 327 324 321 323 325 326 325 322 315 309 313 322 316 312 310 304 304 301 282 282 293 294 289 279 266 255 240 254 255 246 239 227 235 231 229 226 218 207 199 189 188
299 283 295 304 305 313 314 316 330 337 346 350 8 337 324 330 343 342 325 321 334 334 338 331 330 332 331 332 330 330 330 329 327 324 322 324 326 327 327 326 323 323 318 317 318 321 324 323 321 318 317 314 301 272 290 292 279 266 250 240 243 250 232 238 224 230 222 211 217 215 206 196 187 190
278 282 285 281 288 302 309 314 327 346 343 354 340 330 344 342 341 340 344 341 343 343 336 336 336 331 333 333 331 329 328 326 324 323 325 329 332 328 329 326 322 319 313 316 326 334 334 321 320 323 321 314 311 306 282 290 302 299 281 263 262 254 235 226 225 225 216 205 203 196 195 186 184 189
255 287 285 290 301 306 304 309 342 341 342 332 329 338 342 346 347 346 350 352 347 337 338 342 334 333 331 327 326 327 323 321 321 323 328 330 331 332 329 326 326 331 329 330 338 344 339 324 317 322 324 330 331 332 327 309 310 325 326 322 299 265 243 219 223 222 213 190 175 176 167 162 176 180
259 269 278 288 295 292 293 340 348 346 330 328 326 339 342 346 351 352 350 345 346 348 345 333 326 326 327 321 310 309 315 314 318 328 328 328 327 326 321 320 326 339 346 345 349 348 342 328 326 328 334 345 344 337 340 330 332 336 329 321 319 300 308 222 200 192 175 162 164 162 171 155 152 178
273 271 275 282 290 311 342 344 346 323 311 311 316 334 343 341 342 347 348 346 352 341 330 332 333 322 317 323 316 315 318 324 331 334 332 332 335 338 339 340 344 345 352 356 355 349 339 334 325 333 332 350 350 342 344 338 340 332 336 329 304 281 323 1 69 116 118 119 118 118 119 148 167 172
263 263 279 314 318 303 296 287 264 277 315 321 332 338 328 321 323 324 339 326 317 321 325 326 321 316 316 311 324 334 332 331 330 336 335 334 333 337 339 338 340 346 347 353 357 356 348 341 338 338 341 346 355 6 340 336 323 345 350 352 2 22 328 11 42 57 83 95 91 82 78 90 92 129
290 301 322 324 336 341 1 346 350 343 337 307 305 315 316 318 312 314 312 314 329 326 317 303 309 322 329 333 330 329 332 330 328 334 338 340 335 339 339 347 351 343 342 349 355 355 351 346 339 339 345 348 1 353 352 354 359 350 356 353 350 23 28 27 22 39 54 83 81 68 56 52 52 62
327 358 358 2 352 8 345 327 323 320 327 318 314 307 321 326 330 338 1 351 330 323 332 332 333 325 328 328 330 332 333 334 330 334 335 338 341 335 346 349 347 351 348 346 349 350 352 349 344 335 333 253 2 3 6 18 7 356 4 3 7 37 32 23 28 22 26 58 62 69 61 47 35 18
351 347 345 317 309 308 329 316 301 294 299 301 310 314 314 325 329 336 333 324 321 323 322 319 327 325 329 329 334 335 333 328 332 334 342 336 340 345 348 350 352 347 345 346 347 350 347 349 346 341 342 345 202 12 25 22 10 354 353 347 22 38 24 25 26 24 34 40 65 64 51 46 33 25
338 302 313 297 294 270 268 272 269 267 278 277 285 291 302 305 306 309 309 307 324 327 329 326 319 319 329 329 331 334 331 330 330 334 340 343 341 348 345 351 350 350 349 350 352 352 351 352 352 353 4 8 335 10 42 30 360 357 8 25 20 22 30 26 28 27 36 38 38 59 50 39 33 14
273 223 247 274 280 278 287 272 268 269 263 269 265 274 312 306 301 298 300 301 323 315 325 323 324 328 329 331 330 329 330 332 334 338 339 346 344 340 346 352 348 349 349 352 350 351 352 355 359 3 2 2 16 22 18 14 22 12 13 14 13 18 20 22 27 36 37 39 34 47 51 39 31 17
266 254 235 249 267 260 259 266 264 271 265 265 271 261 257 278 285 288 276 298 291 291 292 303 312 318 323 327 330 332 333 339 337 339 343 342 342 343 344 344 350 349 350 352 353 353 356 358 359 2 3 12 19 18 11 358 15 24 24 16 19 23 11 10 30 38 34 33 38 37 40 40 35 30
238 253 250 256 256 257 253 260 263 264 268 262 256 269 263 257 269 278 296 312 298 312 317 322 308 315 320 327 337 337 335 334 337 343 343 344 348 347 345 340 340 351 345 349 357 1 359 2 2 1 2 6 0 5 2 359 13 19 17 23 24 15 10 22 33 32 25 27 39 25 32 45 29 11
228 245 247 258 263 248 257 260 245 251 256 263 261 256 264 273 278 287 296 287 283 294 313 318 318 315 313 317 323 328 330 338 348 344 342 343 345 343 342 344 342 343 341 354 359 3 3 5 360 355 356 357 357 346 329 354 16 359 17 26 28 27 26 27 28 26 26 18 19 24 47 77 73 31
240 231 246 245 259 255 252 259 261 247 247 251 253 255 254 264 272 280 288 289 289 288 288 286 298 315 315 319 327 325 329 344 338 336 338 337 337 340 342 338 335 337 341 353 0 4 9 1 349 348 340 338 318 317 306 281 311 17 24 27 31 36 30 29 30 18 21 8 347 26 37 30 38 13
234 242 247 235 248 253 249 255 251 256 250 249 255 262 258 254 268 267 266 273 274 288 293 298 305 305 302 307 316 326 330 331 337 340 342 338 337 341 341 343 342 346 345 353 359 1 0 345 329 324 329 322 315 272 359 29 26 17 19 21 27 34 38 39 37 31 31 12 3 23 37 40 27 29
221 241 259 241 237 252 240 252 256 250 253 248 249 256 265 263 251 267 279 284 280 270 267 278 283 294 300 301 306 321 328 323 330 337 339 342 342 339 346 356 349 344 355 351 340 329 313 326 340 346 350 356 11 29 34 22 19 15 14 16 17 28 37 41 42 41 41 28 19 22 19 23 21 38
243 244 259 258 245 247 246 247 253 246 251 248 248 251 259 270 276 279 277 280 273 269 266 270 271 276 285 290 295 293 304 319 330 328 329 340 347 345 341 340 339 335 335 323 319 314 329 338 360 3 7 20 16 23 31 19 17 15 15 16 16 16 27 35 42 43 42 42 43 46 40 19 340 44
245 245 251 255 259 259 256 249 254 246 244 245 245 253 252 259 273 270 261 263 266 265 260 261 270 274 280 286 301 304 289 290 307 320 334 333 337 338 332 331 336 341 339 345 331 335 337 343 352 5 20 19 6 20 22 16 19 15 13 9 11 19 25 22 32 43 47 43 40 42 45 50 56 64
240 238 245 252 249 252 256 255 248 252 244 244 247 249 254 256 254 267 271 256 254 259 260 258 264 265 266 283 304 307 301 306 308 302 306 326 338 334 338 337 340 342 346 345 344 336 341 340 348 356 14 13 17 17 8 18 14 5 12 18 17 15 19 15 25 33 37 46 39 44 48 49 52 53